�N����,����,�~����,�C��,���x,�C��,����,���ϕ���,�ő�u�ԕ���,�ő厞����,���˗�,�I�_���x,�n�����x,�ő啗���N��,DTYPE
"22/11/04","00:10",0.0,13.2,92.9,1009.5,329.7,1.8,3.1,331.9,0.00,12.1,16.2,"00:02:42",1
"22/11/04","00:20",0.0,13.3,93.1,1009.5,336.1,2.0,2.9,341.2,0.00,12.2,16.4,"00:14:20",1
"22/11/04","00:30",0.0,13.4,93.2,1009.5,332.6,2.2,3.7,331.4,0.00,12.4,16.3,"00:22:32",1
"22/11/04","00:40",0.0,13.5,93.1,1009.3,323.9,1.8,3.1,329.3,0.00,12.4,16.4,"00:37:32",1
"22/11/04","00:50",0.0,13.4,93.1,1009.5,330.5,2.1,2.9,320.8,0.00,12.3,16.2,"00:49:46",1
"22/11/04","01:00",0.0,13.3,93.1,1009.5,333.8,1.7,2.6,349.0,0.00,12.2,16.2,"00:56:30",1
"22/11/04","01:10",0.0,13.2,93.2,1009.7,332.4,2.0,2.9,344.3,0.00,12.2,16.3,"01:05:22",1
"22/11/04","01:20",0.0,13.2,93.1,1009.3,313.8,1.8,2.8,307.6,0.00,12.2,16.2,"01:14:28",1
"22/11/04","01:30",0.0,13.2,93.2,1009.5,306.6,1.6,2.6,325.5,0.00,12.2,16.0,"01:25:08",1
"22/11/04","01:40",0.0,13.2,93.1,1009.0,313.4,1.6,2.4,319.4,0.00,12.2,16.2,"01:34:06",1
"22/11/04","01:50",0.0,13.2,93.0,1009.3,315.0,2.0,3.2,326.6,0.00,12.1,16.2,"01:44:10",1
"22/11/04","02:00",0.0,13.3,93.0,1009.0,318.0,2.0,3.1,335.5,0.00,12.2,16.2,"01:50:34",1
"22/11/04","02:10",0.0,13.4,92.9,1009.0,315.7,1.3,2.4,340.1,0.00,12.3,16.1,"02:01:54",1
"22/11/04","02:20",0.0,13.3,92.8,1009.0,326.5,1.3,2.2,329.3,0.00,12.2,16.0,"02:12:16",1
"22/11/04","02:30",0.0,13.2,92.6,1009.0,326.7,1.6,2.8,338.7,0.00,12.1,16.0,"02:28:18",1
"22/11/04","02:40",0.0,13.1,92.6,1008.8,325.0,1.7,3.1,324.4,0.00,12.0,16.1,"02:36:48",1
"22/11/04","02:50",0.0,12.9,92.6,1008.8,329.7,1.7,2.7,327.1,0.00,11.8,16.0,"02:47:56",1
"22/11/04","03:00",0.0,12.7,92.7,1009.0,309.2,1.7,2.2,303.9,0.00,11.6,16.0,"02:51:32",1
"22/11/04","03:10",0.0,12.5,92.8,1009.0,297.1,1.5,2.0,314.4,0.00,11.4,16.1,"03:01:28",1
"22/11/04","03:20",0.0,12.3,92.8,1009.3,298.6,0.8,1.2,275.5,0.00,11.2,16.0,"03:12:56",1
"22/11/04","03:30",0.0,11.8,93.0,1008.8,296.8,1.1,1.3,309.9,0.00,10.7,15.7,"03:22:06",1
"22/11/04","03:40",0.0,11.7,93.2,1009.0,297.1,1.5,1.8,322.6,0.00,10.7,15.8,"03:36:30",1
"22/11/04","03:50",0.0,11.4,93.3,1008.8,302.8,1.3,1.6,312.2,0.00,10.4,15.9,"03:42:52",1
"22/11/04","04:00",0.0,11.1,93.6,1008.8,307.6,1.1,1.6,326.0,0.00,10.1,15.8,"03:58:16",1
"22/11/04","04:10",0.0,11.6,93.9,1008.3,327.9,1.8,2.5,333.2,0.00,10.7,15.9,"04:05:24",1
"22/11/04","04:20",0.0,11.9,94.2,1008.8,303.8,2.0,3.1,308.1,0.00,11.0,16.0,"04:19:32",1
"22/11/04","04:30",0.0,12.2,94.1,1008.6,302.6,2.0,3.3,321.6,0.00,11.3,15.7,"04:22:34",1
"22/11/04","04:40",0.0,12.2,94.4,1009.0,298.6,2.0,3.1,313.8,0.00,11.4,15.7,"04:38:34",1
"22/11/04","04:50",0.0,12.0,94.4,1009.0,317.2,1.8,2.7,323.7,0.00,11.2,15.7,"04:40:10",1
"22/11/04","05:00",0.0,12.2,94.5,1008.3,313.7,2.5,3.2,300.3,0.00,11.4,15.9,"04:53:52",1
"22/11/04","05:10",0.0,12.3,94.5,1008.8,318.9,2.7,4.0,337.1,0.00,11.5,15.9,"05:02:18",1
"22/11/04","05:20",0.0,12.1,94.5,1008.8,325.3,2.6,3.6,336.3,0.00,11.3,15.8,"05:10:26",1
"22/11/04","05:30",0.0,12.1,94.6,1008.8,312.8,2.8,4.1,332.7,0.00,11.3,15.7,"05:24:34",1
"22/11/04","05:40",0.0,12.0,94.5,1008.8,312.5,2.2,4.0,318.2,0.00,11.2,15.8,"05:31:34",1
"22/11/04","05:50",0.0,11.9,94.6,1008.8,300.8,1.6,2.6,315.8,0.00,11.1,15.8,"05:42:12",1
"22/11/04","06:00",0.0,11.9,94.7,1008.8,315.5,1.8,3.2,328.2,0.00,11.1,15.7,"05:56:04",1
"22/11/04","06:10",0.0,11.8,94.7,1009.3,325.2,1.6,2.5,329.7,0.00,11.0,15.6,"06:01:18",1
"22/11/04","06:20",0.0,11.5,94.7,1009.3,304.6,1.1,2.0,317.6,0.00,10.7,15.6,"06:19:30",1
"22/11/04","06:30",0.0,11.8,95.0,1009.5,318.9,2.1,3.3,319.3,0.00,11.1,15.6,"06:29:16",1
"22/11/04","06:40",0.0,12.0,94.9,1009.0,309.6,1.8,2.9,327.0,0.00,11.2,15.5,"06:30:42",1
"22/11/04","06:50",0.0,12.0,94.9,1008.8,310.2,2.0,2.7,338.0,0.00,11.2,15.4,"06:40:18",1
"22/11/04","07:00",0.0,12.0,94.9,1008.8,312.7,1.6,2.5,303.9,0.00,11.2,15.5,"06:53:00",1
"22/11/04","07:10",0.0,11.7,94.9,1008.3,285.0,0.7,1.1,303.7,0.00,11.0,15.6,"07:00:14",1
"22/11/04","07:20",0.0,11.6,95.0,1008.8,300.5,1.0,1.4,295.1,0.00,10.9,15.4,"07:19:46",1
"22/11/04","07:30",0.0,11.5,95.1,1009.0,319.1,1.8,2.1,315.9,0.00,10.8,15.3,"07:22:48",1
"22/11/04","07:40",0.0,11.6,95.3,1008.6,315.3,1.8,2.2,318.3,0.01,10.9,15.4,"07:33:04",1
"22/11/04","07:50",0.0,11.9,95.2,1009.0,312.7,1.3,1.7,339.2,0.01,11.2,15.3,"07:42:08",1
"22/11/04","08:00",0.0,12.3,95.4,1009.3,264.1,0.5,1.4,317.7,0.04,11.6,15.5,"07:50:48",1
"22/11/04","08:10",0.0,12.9,95.3,1009.3,264.8,0.7,1.1,256.6,0.07,12.2,15.4,"08:04:16",1
"22/11/04","08:20",0.0,13.7,95.1,1009.5,300.1,0.6,1.2,307.5,0.11,13.0,15.4,"08:15:36",1
"22/11/04","08:30",0.0,14.2,94.3,1009.7,270.6,0.2,0.5,96.5,0.13,13.3,15.3,"08:21:36",1
"22/11/04","08:40",0.0,14.3,93.7,1009.5,160.5,0.2,0.6,118.4,0.09,13.3,15.6,"08:31:44",1
"22/11/04","08:50",0.0,15.1,93.0,1009.7,281.8,0.3,0.8,320.4,0.12,14.0,15.3,"08:40:32",1
"22/11/04","09:00",0.0,15.2,92.0,1010.0,272.7,0.6,1.9,258.4,0.15,13.9,15.2,"08:58:32",1
"22/11/04","09:10",0.0,15.4,91.2,1010.2,264.9,0.6,1.7,245.4,0.17,14.0,15.6,"09:06:56",1
"22/11/04","09:20",0.0,15.9,89.2,1010.2,309.9,1.1,2.4,337.2,0.19,14.2,15.7,"09:14:56",1
"22/11/04","09:30",0.0,16.3,86.6,1010.2,313.9,0.5,1.3,316.0,0.21,14.1,15.6,"09:21:28",1
"22/11/04","09:40",0.0,16.9,84.4,1009.7,251.7,0.5,1.1,204.3,0.23,14.3,15.8,"09:34:24",1
"22/11/04","09:50",0.0,17.5,82.3,1009.5,355.5,0.7,1.7,353.0,0.25,14.5,15.6,"09:45:12",1
"22/11/04","10:00",0.0,17.6,79.6,1009.3,81.3,0.6,1.4,85.7,0.28,14.1,15.5,"09:54:48",1
"22/11/04","10:10",0.0,18.3,77.7,1008.8,183.1,0.5,1.2,128.8,0.30,14.4,15.5,"10:05:52",1
"22/11/04","10:20",0.0,18.5,72.1,1008.8,251.8,1.5,3.6,227.5,0.32,13.4,15.6,"10:14:24",1
"22/11/04","10:30",0.0,19.0,68.1,1008.3,273.5,1.7,4.3,232.0,0.33,13.0,15.5,"10:29:20",1
"22/11/04","10:40",0.0,18.8,68.6,1008.6,229.2,2.3,4.5,197.8,0.36,12.9,15.8,"10:36:40",1
"22/11/04","10:50",0.0,19.3,66.6,1008.6,259.6,2.1,6.4,233.9,0.38,13.0,15.7,"10:49:04",1
"22/11/04","11:00",0.0,19.7,64.4,1008.6,283.8,2.2,4.0,238.9,0.41,12.8,15.8,"10:56:08",1
"22/11/04","11:10",0.0,20.1,62.9,1008.3,263.8,1.8,5.2,234.8,0.41,12.9,15.7,"11:00:02",1
"22/11/04","11:20",0.0,19.7,62.2,1008.3,285.3,2.3,5.2,306.5,0.44,12.3,16.1,"11:14:32",1
"22/11/04","11:30",0.0,19.9,62.9,1008.1,286.0,2.2,6.4,350.7,0.43,12.7,15.9,"11:25:20",1
"22/11/04","11:40",0.0,20.1,63.0,1007.8,278.3,2.0,6.0,353.8,0.43,12.9,16.0,"11:36:08",1
"22/11/04","11:50",0.0,20.1,61.7,1007.6,254.8,2.2,4.7,222.8,0.44,12.6,16.0,"11:49:44",1
"22/11/04","12:00",0.0,20.4,61.3,1007.6,264.1,2.3,5.1,246.5,0.45,12.7,16.1,"11:51:12",1
"22/11/04","12:10",0.0,20.3,59.9,1007.6,267.8,2.3,4.7,246.8,0.46,12.3,16.2,"12:00:08",1
"22/11/04","12:20",0.0,20.6,58.8,1007.8,282.3,2.5,6.0,332.6,0.48,12.3,16.3,"12:12:00",1
"22/11/04","12:30",0.0,20.6,58.5,1007.8,281.7,2.3,5.5,343.1,0.46,12.2,16.2,"12:26:32",1
"22/11/04","12:40",0.0,21.1,56.7,1007.4,272.5,2.0,5.5,233.2,0.47,12.2,16.4,"12:34:08",1
"22/11/04","12:50",0.0,21.1,56.3,1007.4,260.9,2.5,5.6,240.7,0.46,12.1,16.6,"12:41:28",1
"22/11/04","13:00",0.0,20.8,55.5,1007.1,285.8,2.6,5.4,358.5,0.44,11.6,16.5,"12:57:52",1
"22/11/04","13:10",0.0,21.0,55.1,1007.1,293.4,2.6,5.7,10.4,0.44,11.7,16.6,"13:01:20",1
"22/11/04","13:20",0.0,21.1,55.0,1006.4,270.6,2.5,6.7,320.3,0.43,11.8,16.6,"13:11:36",1
"22/11/04","13:30",0.0,21.1,54.2,1006.7,267.2,2.6,6.3,225.6,0.44,11.5,16.8,"13:24:32",1
"22/11/04","13:40",0.0,21.5,53.5,1006.4,299.7,2.5,5.7,238.3,0.40,11.7,16.7,"13:33:20",1
"22/11/04","13:50",0.0,21.9,51.3,1006.7,298.0,2.0,5.0,312.1,0.42,11.4,16.8,"13:46:56",1
"22/11/04","14:00",0.0,22.2,50.8,1006.4,304.1,1.7,4.0,247.1,0.34,11.6,17.0,"13:51:52",1
"22/11/04","14:10",0.0,21.7,51.8,1006.2,319.0,2.6,6.3,348.0,0.33,11.4,16.8,"14:01:52",1
"22/11/04","14:20",0.0,21.1,52.7,1006.7,345.2,2.6,6.0,353.5,0.24,11.1,17.1,"14:10:32",1
"22/11/04","14:30",0.0,20.7,54.0,1006.9,331.4,2.7,5.6,18.7,0.20,11.1,17.1,"14:23:44",1
"22/11/04","14:40",0.0,20.4,55.0,1007.1,336.1,3.0,8.3,326.3,0.20,11.1,17.1,"14:36:24",1
"22/11/04","14:50",0.0,20.0,57.4,1007.4,328.0,2.1,5.2,320.8,0.16,11.4,17.1,"14:44:16",1
"22/11/04","15:00",0.0,19.7,58.4,1007.4,332.1,2.6,6.4,346.0,0.08,11.4,17.1,"14:54:00",1
"22/11/04","15:10",0.0,19.6,58.5,1007.4,327.5,2.8,6.5,331.7,0.15,11.3,17.2,"15:06:16",1
"22/11/04","15:20",0.0,20.0,57.6,1007.6,332.2,2.2,4.5,315.0,0.19,11.4,17.2,"15:16:08",1
"22/11/04","15:30",0.0,20.2,55.3,1007.6,330.9,2.3,5.1,346.9,0.18,11.0,17.2,"15:28:48",1
"22/11/04","15:40",0.0,20.2,55.7,1007.6,351.7,2.5,5.4,353.0,0.17,11.1,17.2,"15:31:20",1
"22/11/04","15:50",0.0,20.5,55.5,1007.6,348.5,2.2,5.2,350.4,0.15,11.3,17.3,"15:49:28",1
"22/11/04","16:00",0.0,20.1,55.3,1008.1,353.9,2.2,5.0,22.2,0.13,10.9,17.2,"15:57:52",1
"22/11/04","16:10",0.0,20.0,55.9,1008.1,344.7,2.3,6.3,351.5,0.11,11.0,17.3,"16:06:08",1
"22/11/04","16:20",0.0,19.6,55.0,1008.3,348.0,2.5,6.4,351.9,0.08,10.4,17.2,"16:12:56",1
"22/11/04","16:30",0.0,19.5,55.3,1008.3,353.0,2.2,4.4,357.1,0.06,10.4,17.2,"16:24:16",1
"22/11/04","16:40",0.0,19.0,56.1,1008.1,349.4,2.5,4.9,341.3,0.04,10.1,17.2,"16:31:20",1
"22/11/04","16:50",0.0,18.5,57.4,1008.6,350.7,2.6,6.2,325.3,0.02,10.0,17.2,"16:44:32",1
"22/11/04","17:00",0.0,18.0,60.0,1008.6,342.4,2.5,5.9,335.2,0.01,10.2,17.3,"16:52:24",1
"22/11/04","17:10",0.0,17.5,62.6,1009.0,332.2,1.8,5.0,303.3,0.00,10.3,17.2,"17:02:08",1
"22/11/04","17:20",0.0,16.9,64.7,1009.5,350.5,2.3,6.2,337.0,0.00,10.3,17.2,"17:16:48",1
"22/11/04","17:30",0.0,16.5,66.7,1009.3,351.9,2.3,5.4,47.1,0.00,10.3,17.0,"17:23:20",1
"22/11/04","17:40",0.0,16.1,68.0,1009.3,340.6,1.2,3.9,336.3,0.00,10.2,17.1,"17:30:48",1
"22/11/04","17:50",0.0,15.4,70.0,1009.7,321.6,1.3,2.0,317.7,0.00,10.0,17.2,"17:48:16",1
"22/11/04","18:00",0.0,14.8,71.2,1010.0,314.7,0.8,2.5,315.1,0.00,9.7,17.1,"17:50:56",1
"22/11/04","18:10",0.0,14.6,72.7,1009.7,313.6,1.0,1.8,334.2,0.00,9.8,17.0,"18:07:12",1
"22/11/04","18:20",0.0,14.5,73.8,1009.7,330.2,1.1,1.8,4.7,0.00,9.9,17.1,"18:12:16",1
"22/11/04","18:30",0.0,14.0,75.6,1010.0,355.8,0.6,2.2,345.1,0.00,9.8,17.0,"18:20:32",1
"22/11/04","18:40",0.0,13.4,77.5,1010.0,326.6,1.3,1.7,331.5,0.00,9.6,16.8,"18:30:08",1
"22/11/04","18:50",0.0,12.9,79.5,1010.4,301.7,1.2,1.6,312.0,0.00,9.5,16.8,"18:42:42",1
"22/11/04","19:00",0.0,12.6,81.3,1010.4,304.9,1.5,2.1,334.7,0.00,9.5,16.9,"18:58:34",1
"22/11/04","19:10",0.0,12.0,82.7,1010.7,304.4,1.2,1.9,333.1,0.00,9.2,16.9,"19:09:30",1
"22/11/04","19:20",0.0,11.8,84.1,1010.4,315.8,1.7,2.0,318.1,0.00,9.2,16.7,"19:15:02",1
"22/11/04","19:30",0.0,11.6,85.4,1010.9,324.2,1.8,2.5,326.9,0.00,9.3,16.6,"19:25:42",1
"22/11/04","19:40",0.0,11.2,86.6,1010.7,303.6,1.3,1.8,316.0,0.00,9.1,16.5,"19:37:56",1
"22/11/04","19:50",0.0,11.3,87.3,1010.9,313.0,1.5,2.1,329.7,0.00,9.3,16.5,"19:41:40",1
"22/11/04","20:00",0.0,11.3,88.1,1010.9,326.0,2.0,2.8,326.1,0.00,9.4,16.4,"19:57:54",1
"22/11/04","20:10",0.0,11.2,88.7,1010.9,301.3,1.7,2.4,337.2,0.00,9.4,16.7,"20:01:04",1
"22/11/04","20:20",0.0,11.3,89.1,1010.9,312.7,2.3,3.1,337.4,0.00,9.6,16.7,"20:13:34",1
"22/11/04","20:30",0.0,11.4,89.4,1010.7,306.6,2.5,3.4,329.4,0.00,9.8,16.4,"20:29:52",1
"22/11/04","20:40",0.0,11.4,89.5,1010.9,325.0,2.2,3.2,319.2,0.00,9.8,16.5,"20:31:52",1
"22/11/04","20:50",0.0,11.5,89.7,1010.9,329.0,2.2,3.2,329.5,0.00,9.9,16.2,"20:49:38",1
"22/11/04","21:00",0.0,11.5,89.8,1010.9,327.5,2.3,3.5,341.8,0.00,9.9,16.6,"20:57:28",1
"22/11/04","21:10",0.0,11.4,89.8,1011.4,323.4,2.1,4.0,335.6,0.00,9.8,16.2,"21:03:28",1
"22/11/04","21:20",0.0,11.2,90.0,1011.6,313.0,1.6,2.2,334.8,0.00,9.7,16.3,"21:12:40",1
"22/11/04","21:30",0.0,11.2,90.3,1011.6,321.0,1.7,3.3,341.5,0.00,9.7,16.2,"21:27:50",1
"22/11/04","21:40",0.0,11.1,90.4,1011.6,324.5,1.8,2.7,331.1,0.00,9.6,16.2,"21:31:16",1
"22/11/04","21:50",0.0,11.1,90.6,1011.4,330.4,1.7,2.7,332.9,0.00,9.7,16.1,"21:47:48",1
"22/11/04","22:00",0.0,11.2,90.7,1011.6,326.3,2.1,3.2,344.1,0.00,9.8,16.0,"21:53:48",1
"22/11/04","22:10",0.0,11.2,90.7,1011.6,313.0,2.3,3.9,316.0,0.00,9.8,16.0,"22:07:22",1
"22/11/04","22:20",0.0,11.4,90.4,1011.4,321.2,2.8,4.3,338.8,0.00,9.9,16.0,"22:11:08",1
"22/11/04","22:30",0.0,11.2,90.2,1011.6,299.0,2.1,2.9,277.5,0.00,9.7,16.0,"22:24:30",1
"22/11/04","22:40",0.0,11.0,90.1,1011.6,297.4,1.7,2.5,324.9,0.00,9.5,15.9,"22:35:38",1
"22/11/04","22:50",0.0,10.9,90.3,1011.6,285.8,1.6,2.4,307.3,0.00,9.4,16.1,"22:49:48",1
"22/11/04","23:00",0.0,10.7,90.5,1011.6,286.1,1.6,2.9,295.0,0.00,9.3,15.9,"22:58:40",1
"22/11/04","23:10",0.0,10.8,90.5,1012.1,330.6,2.5,3.5,343.2,0.00,9.3,15.8,"23:03:14",1
"22/11/04","23:20",0.0,10.9,90.5,1011.9,328.7,2.2,3.1,335.1,0.00,9.4,15.8,"23:11:06",1
"22/11/04","23:30",0.0,10.9,90.5,1011.6,332.3,2.3,3.6,347.0,0.00,9.4,15.8,"23:26:34",1
"22/11/04","23:40",0.0,10.8,90.5,1011.6,330.1,2.7,3.9,320.1,0.00,9.3,16.0,"23:39:42",1
"22/11/04","23:50",0.0,10.9,90.5,1011.4,332.6,2.8,3.6,343.8,0.00,9.4,15.9,"23:44:50",1
"22/11/04","24:00",0.0,11.1,90.1,1011.6,325.5,2.8,4.2,330.4,0.00,9.6,15.7,"23:58:34",1
